FW1757 Weather Reports


Display with metric or nautical units.
time (UTC)temp
F
wind
direction
speed
MPH
gust
MPH
rain 1hr
in
rain 24hr
in
rain mn
in
humidity
%
barometer
mb
20260506005501 72 249 0.0 0.0 0.00 0.00 0.00 54 1009.9
20260506005001 72 259 0.0 0.0 0.00 0.00 0.00 54 1009.9
20260506004501 72 261 0.0 0.0 0.00 0.00 0.00 56 1009.9
20260506004001 71 267 0.0 0.0 0.00 0.00 0.00 56 1009.8
20260506003503 71 267 0.0 0.0 0.00 0.00 0.00 55 1009.9
20260506003001 71 288 0.0 0.0 0.00 0.00 0.00 55 1009.8
20260506002500 71 288 0.0 0.0 0.00 0.00 0.00 57 1009.9
20260506002100 71 267 0.0 0.0 0.00 0.00 0.00 58 1009.8
20260506001600 71 277 0.0 0.0 0.00 0.00 0.00 57 1009.8
20260506001101 71 267 0.0 0.0 0.00 0.00 0.00 57 1009.8
20260506000600 71 273 0.0 0.0 0.00 0.00 0.00 57 1009.8
20260505235559 71 298 0.0 0.0 0.00 0.00 0.00 56 1010.0
20260505235101 72 290 0.0 0.0 0.00 0.00 0.00 56 1010.1
20260505234605 72 266 0.0 0.0 0.00 0.00 0.00 56 1010.1
20260505234058 72 286 0.0 0.0 0.00 0.00 0.00 57 1010.1
20260505233602 72 286 0.0 0.0 0.00 0.00 0.00 56 1010.2
20260505233111 72 299 0.0 0.0 0.00 0.00 0.00 56 1010.2
20260505232558 72 293 0.0 0.0 0.00 0.00 0.00 56 1010.2
20260505232058 72 283 0.0 0.0 0.00 0.00 0.00 55 1010.2
20260505231605 72 319 0.0 0.0 0.00 0.00 0.00 55 1010.2
20260505231101 72 294 0.0 0.0 0.00 0.00 0.00 55 1010.2
20260505230556 72 275 0.0 0.0 0.00 0.00 0.00 56 1010.2
20260505230056 72 263 0.0 0.0 0.00 0.00 0.00 56 1010.3
20260505225556 71 284 0.0 0.0 0.00 0.00 0.00 58 1010.3
20260505225056 71 296 0.0 0.0 0.00 0.00 0.00 56 1010.4
20260505224556 71 294 0.0 0.0 0.00 0.00 0.00 56 1010.3
20260505224055 72 281 0.0 0.0 0.00 0.00 0.00 56 1010.4
20260505223555 71 259 0.0 0.0 0.00 0.00 0.00 56 1010.3
20260505223057 72 284 0.0 0.0 0.00 0.00 0.00 56 1010.4
20260505222555 72 284 0.0 0.0 0.00 0.00 0.00 56 1010.4
20260505222055 72 310 0.0 0.0 0.00 0.00 0.00 56 1010.4
20260505221555 72 273 0.0 0.0 0.00 0.00 0.00 56 1010.5
20260505221053 72 300 0.0 0.0 0.00 0.00 0.00 56 1010.5
20260505220557 72 298 0.0 0.0 0.00 0.00 0.00 55 1010.4
20260505220052 71 257 0.0 0.0 0.00 0.00 0.00 57 1010.5
20260505215551 71 284 0.0 0.0 0.00 0.00 0.00 56 1010.5
20260505215051 71 259 0.0 0.0 0.00 0.00 0.00 58 1010.6
20260505214555 71 260 0.0 0.0 0.00 0.00 0.00 57 1010.7
20260505214051 71 278 0.0 0.0 0.00 0.00 0.00 57 1010.8
20260505213550 71 292 0.0 0.0 0.00 0.00 0.00 56 1010.8
20260505213052 71 271 0.0 0.0 0.00 0.00 0.00 58 1010.8
20260505212550 71 292 0.0 0.0 0.00 0.00 0.00 56 1010.9
20260505212049 71 279 0.0 0.0 0.00 0.00 0.00 58 1010.9
20260505211556 71 298 0.0 0.0 0.00 0.00 0.00 58 1010.8
20260505211051 71 274 0.0 0.0 0.00 0.00 0.00 57 1010.9
20260505210547 71 293 0.0 0.0 0.00 0.00 0.00 58 1010.9
20260505210047 70 304 0.0 0.0 0.00 0.00 0.00 57 1011.0
20260505205546 70 295 0.0 0.0 0.00 0.00 0.00 58 1011.0
20260505205049 70 242 0.0 0.0 0.00 0.00 0.00 58 1011.0
20260505204547 70 270 0.0 0.0 0.00 0.00 0.00 60 1011.0
20260505204044 69 275 0.0 0.0 0.00 0.00 0.00 59 1011.1
20260505203548 69 294 0.0 0.0 0.00 0.00 0.00 58 1011.0
20260505203047 69 284 0.0 0.0 0.00 0.00 0.00 57 1011.0
20260505202546 69 282 0.0 0.0 0.00 0.00 0.00 58 1011.1
20260505202047 69 279 0.0 0.0 0.00 0.00 0.00 58 1011.1
20260505201545 69 290 0.0 0.0 0.00 0.00 0.00 58 1011.1
20260505201043 69 283 0.0 0.0 0.00 0.00 0.00 59 1011.2
20260505200543 69 296 0.0 0.0 0.00 0.00 0.00 58 1011.3
20260505200047 69 296 0.0 0.0 0.00 0.00 0.00 57 1011.3
20260505195541 69 315 0.0 0.0 0.00 0.00 0.00 59 1011.3
20260505195040 69 241 0.0 0.0 0.00 0.00 0.00 56 1011.3
20260505194540 69 284 0.0 0.0 0.00 0.00 0.00 59 1011.3
20260505194038 68 245 0.0 0.0 0.00 0.00 0.00 58 1011.4
20260505193538 68 254 0.0 0.0 0.00 0.00 0.00 59 1011.5
20260505193036 68 288 0.0 0.0 0.00 0.00 0.00 60 1011.5
20260505192535 67 265 0.0 0.0 0.00 0.00 0.00 60 1011.5
20260505192034 67 274 0.0 0.0 0.00 0.00 0.00 61 1011.7
20260505191533 67 318 0.0 0.0 0.00 0.00 0.00 60 1011.6
20260505191035 67 304 0.0 0.0 0.00 0.00 0.00 60 1011.6
20260505190532 67 306 0.0 0.0 0.00 0.00 0.00 61 1011.7
20260505190037 67 288 0.0 0.0 0.00 0.00 0.00 61 1011.7
20260505185532 66 281 0.0 0.0 0.00 0.00 0.00 61 1011.7
20260505185032 67 321 0.0 0.0 0.00 0.00 0.00 60 1011.7
20260505184530 66 299 0.0 0.0 0.00 0.00 0.00 62 1011.8
20260505184030 66 254 0.0 0.0 0.00 0.00 0.00 60 1011.9
20260505183530 66 306 0.0 0.0 0.00 0.00 0.00 63 1011.9
20260505183032 66 284 0.0 0.0 0.00 0.00 0.00 62 1011.9
20260505182529 66 303 0.0 0.0 0.00 0.00 0.00 61 1012.0
20260505182029 66 278 0.0 0.0 0.00 0.00 0.00 63 1011.9
20260505181529 66 304 0.0 0.0 0.00 0.00 0.00 62 1011.9
20260505181028 65 252 0.0 0.0 0.00 0.00 0.00 62 1011.9
20260505180525 65 247 0.0 0.0 0.00 0.00 0.00 63 1011.9
20260505180025 65 310 0.0 0.0 0.00 0.00 0.00 63 1012.0
20260505175525 65 296 0.0 0.0 0.00 0.00 0.00 61 1012.0
20260505175024 64 299 0.0 0.0 0.00 0.00 0.00 63 1012.0
20260505174524 64 279 0.0 0.0 0.00 0.00 0.00 64 1011.9
20260505174026 64 284 0.0 0.0 0.00 0.00 0.00 64 1011.9
20260505173523 64 280 0.0 0.0 0.00 0.00 0.00 64 1012.0
20260505173022 64 254 0.0 0.0 0.00 0.00 0.00 65 1012.2
20260505172521 63 277 0.0 0.0 0.00 0.00 0.00 65 1012.0
20260505172023 63 284 0.0 0.0 0.00 0.00 0.00 65 1012.0
20260505171524 63 263 0.0 0.0 0.00 0.00 0.00 65 1012.0
20260505171021 63 317 0.0 0.0 0.00 0.00 0.00 65 1012.0
20260505170521 62 276 0.0 0.0 0.00 0.00 0.00 66 1011.9
20260505170020 62 302 0.0 0.0 0.00 0.00 0.00 67 1011.9
20260505165521 62 284 0.0 0.0 0.00 0.00 0.00 66 1011.8
20260505165020 62 259 0.0 0.0 0.00 0.00 0.00 67 1012.0
20260505164519 62 267 0.0 0.0 0.00 0.00 0.00 67 1011.9
20260505164023 61 268 0.0 0.0 0.00 0.00 0.00 67 1011.8
20260505163517 61 276 0.0 0.0 0.00 0.00 0.00 67 1011.8
20260505163017 61 252 0.0 0.0 0.00 0.00 0.00 67 1011.8
20260505162517 61 221 0.0 0.0 0.00 0.00 0.00 67 1011.9
20260505162017 61 279 0.0 0.0 0.00 0.00 0.00 67 1011.8
20260505161517 60 267 0.0 0.0 0.00 0.00 0.00 67 1011.8
20260505161019 60 250 0.0 0.0 0.00 0.00 0.00 67 1011.9
20260505160519 60 253 0.0 0.0 0.00 0.00 0.00 67 1011.9
20260505153014 59 300 0.0 0.0 0.00 0.00 0.00 65 1011.7
20260505152513 59 247 0.0 0.0 0.00 0.00 0.00 65 1011.6
20260505152017 59 284 0.0 0.0 0.00 0.00 0.00 64 1011.5
20260505151511 59 214 0.0 0.0 0.00 0.00 0.00 64 1011.5
20260505151011 58 298 0.0 0.0 0.00 0.00 0.00 64 1011.5
20260505150511 58 267 0.0 0.0 0.00 0.00 0.00 63 1011.5
20260505140506 57 287 0.0 0.0 0.00 0.00 0.00 59 1010.9
20260505124607 57 300 0.0 0.0 0.00 0.00 0.00 60 1010.0
20260505124058 58 273 0.0 0.0 0.00 0.00 0.00 60 1010.0
20260505123557 58 194 0.0 0.0 0.00 0.00 0.00 61 1009.9
20260505123058 58 285 0.0 0.0 0.00 0.00 0.00 61 1009.9
20260505122556 58 240 0.0 0.0 0.00 0.00 0.00 61 1009.8
20260505122055 58 269 0.0 0.0 0.00 0.00 0.00 62 1009.8
20260505121555 58 285 0.0 0.0 0.00 0.00 0.00 62 1009.8
20260505121058 58 294 0.0 0.0 0.00 0.00 0.00 62 1009.6
20260505120554 58 292 0.0 0.0 0.00 0.00 0.00 62 1009.6
20260505120108 58 266 0.0 0.0 0.00 0.00 0.00 62 1009.6
20260505115553 58 278 0.0 0.0 0.00 0.00 0.00 62 1009.6
20260505115052 58 280 0.0 0.0 0.00 0.00 0.00 62 1009.6
20260505114552 59 295 0.0 0.0 0.00 0.00 0.00 63 1009.5
20260505114052 59 244 0.0 0.0 0.00 0.00 0.00 63 1009.6
20260505113550 59 288 0.0 0.0 0.00 0.00 0.00 63 1009.7
20260505113054 59 257 0.0 0.0 0.00 0.00 0.00 63 1009.6
20260505112552 59 251 0.0 0.0 0.00 0.00 0.00 63 1009.6
20260505112049 59 246 0.0 0.0 0.00 0.00 0.00 63 1009.5
20260505111549 59 298 0.0 0.0 0.00 0.00 0.00 63 1009.4
20260505111049 59 290 0.0 0.0 0.00 0.00 0.00 63 1009.5
20260505110549 59 269 0.0 0.0 0.00 0.00 0.00 63 1009.4
20260505102043 60 291 0.0 0.0 0.00 0.00 0.00 64 1009.2
20260505101543 60 285 0.0 0.0 0.00 0.00 0.00 64 1009.1
20260505101042 60 282 0.0 0.0 0.00 0.00 0.00 65 1009.2
20260505100542 60 291 0.0 0.0 0.00 0.00 0.00 65 1009.1
20260505100042 61 310 0.0 0.0 0.00 0.00 0.00 65 1009.1
20260505095541 61 277 0.0 0.0 0.00 0.00 0.00 65 1009.1
20260505095039 61 284 0.0 0.0 0.00 0.00 0.00 65 1009.0
20260505094541 61 279 0.0 0.0 0.00 0.00 0.00 65 1009.0
20260505094039 61 279 0.0 0.0 0.00 0.00 0.00 65 1008.9
20260505093538 61 299 0.0 0.0 0.00 0.00 0.00 65 1009.0
20260505093038 61 288 0.0 0.0 0.00 0.00 0.00 65 1009.0
20260505092537 61 261 0.0 0.0 0.00 0.00 0.00 65 1008.9
20260505092037 61 288 0.0 0.0 0.00 0.00 0.00 66 1009.0
20260505091536 62 279 0.0 0.0 0.00 0.00 0.00 66 1009.0
20260505091038 62 250 0.0 0.0 0.00 0.00 0.00 66 1008.9
20260505090534 62 301 0.0 0.0 0.00 0.00 0.00 66 1008.9
20260505090037 62 278 0.0 0.0 0.00 0.00 0.00 66 1008.9
20260505085534 62 272 0.0 0.0 0.00 0.00 0.00 66 1008.7
20260505085033 62 309 0.0 0.0 0.00 0.00 0.00 66 1008.7
20260505084532 63 261 0.0 0.0 0.00 0.00 0.00 66 1008.6
20260505084031 63 267 0.0 0.0 0.00 0.00 0.00 66 1008.7
20260505083531 63 323 0.0 0.0 0.00 0.00 0.00 65 1008.6
20260505083030 63 220 0.0 0.0 0.00 0.00 0.00 65 1008.5
20260505082530 63 259 0.0 0.0 0.00 0.00 0.00 65 1008.6
20260505082030 63 271 0.0 0.0 0.00 0.00 0.00 64 1008.5
20260505081541 63 279 0.0 0.0 0.00 0.00 0.00 64 1008.6
20260505081029 63 284 0.0 0.0 0.00 0.00 0.00 64 1008.6
20260505080528 63 272 0.0 0.0 0.00 0.00 0.00 64 1008.6
20260505080028 63 275 0.0 0.0 0.00 0.00 0.00 64 1008.4
20260505075527 63 280 0.0 0.0 0.00 0.00 0.00 64 1008.5
20260505075029 63 283 0.0 0.0 0.00 0.00 0.00 64 1008.5
20260505074526 63 296 0.0 0.0 0.00 0.00 0.00 64 1008.4
20260505074027 63 277 0.0 0.0 0.00 0.00 0.00 65 1008.3
20260505073527 63 291 0.0 0.0 0.00 0.00 0.00 64 1008.4
20260505073032 64 285 0.0 0.0 0.00 0.00 0.00 64 1008.3
20260505072524 64 285 0.0 0.0 0.00 0.00 0.00 64 1008.4
20260505072023 64 294 0.0 0.0 0.00 0.00 0.00 64 1008.4
20260505071543 64 281 0.0 0.0 0.00 0.00 0.00 65 1008.3
20260505071022 64 290 0.0 0.0 0.00 0.00 0.00 65 1008.3
20260505070522 64 286 0.0 0.0 0.00 0.00 0.00 65 1008.0
20260505070021 64 294 0.0 0.0 0.00 0.00 0.00 65 1008.1
20260505065525 64 261 0.0 0.0 0.00 0.00 0.00 65 1008.1
20260505065020 64 279 0.0 0.0 0.00 0.00 0.00 65 1008.1
20260505064524 64 285 0.0 0.0 0.00 0.00 0.00 65 1007.9
20260505064023 64 285 0.0 0.0 0.00 0.00 0.00 66 1007.9
20260505063519 64 276 0.0 0.0 0.00 0.00 0.00 66 1007.8
20260505063019 64 277 0.0 0.0 0.00 0.00 0.00 66 1007.9
20260505062519 65 269 0.0 0.0 0.00 0.00 0.00 66 1007.9
20260505062019 65 269 0.0 0.0 0.00 0.00 0.00 66 1007.8
20260505061519 65 288 0.0 0.0 0.00 0.00 0.00 66 1007.9
20260505061022 65 234 0.0 0.0 0.00 0.00 0.00 66 1007.8
20260505060518 65 282 0.0 0.0 0.00 0.00 0.00 66 1007.7
20260505060018 65 279 0.0 0.0 0.00 0.00 0.00 66 1007.5
20260505055518 65 279 0.0 0.0 0.00 0.00 0.00 66 1007.6
20260505055018 65 259 0.0 0.0 0.00 0.00 0.00 66 1007.6
20260505054523 65 254 0.0 0.0 0.00 0.00 0.00 66 1007.7
20260505054018 65 266 0.0 0.0 0.00 0.00 0.00 66 1007.6
20260505053517 66 281 0.0 0.0 0.00 0.00 0.00 65 1007.6
20260505053024 66 265 0.0 0.0 0.00 0.00 0.00 65 1007.6
20260505052519 66 216 0.0 0.0 0.00 0.00 0.00 65 1007.6
20260505052017 66 279 0.0 0.0 0.00 0.00 0.00 65 1007.6
20260505051531 66 270 0.0 0.0 0.00 0.00 0.00 65 1007.6
20260505051017 66 249 0.0 0.0 0.00 0.00 0.00 65 1007.5
20260505050520 66 241 0.0 0.0 0.00 0.00 0.00 65 1007.4
20260505041517 67 319 0.0 0.0 0.00 0.00 0.00 62 1007.0
20260505041014 67 281 0.0 0.0 0.00 0.00 0.00 61 1006.8
20260505040514 68 278 0.0 0.0 0.00 0.00 0.00 62 1006.8
20260505040021 68 292 0.0 0.0 0.00 0.00 0.00 61 1006.6
20260505035514 68 292 0.0 0.0 0.00 0.00 0.00 61 1006.6
20260505035013 68 276 0.0 0.0 0.00 0.00 0.00 60 1006.6
20260505034512 68 273 0.0 0.0 0.00 0.00 0.00 60 1006.4
20260505034016 68 306 0.0 0.0 0.00 0.00 0.00 59 1006.4
20260505033512 68 300 0.0 0.0 0.00 0.00 0.00 59 1006.4
20260505033012 69 279 0.0 0.0 0.00 0.00 0.00 59 1006.4
20260505032511 69 292 0.0 0.0 0.00 0.00 0.00 58 1006.4
20260505032016 69 294 0.0 0.0 0.00 0.00 0.00 58 1006.4
20260505031511 69 296 0.0 0.0 0.00 0.00 0.00 58 1006.3
20260505031016 70 275 0.0 0.0 0.00 0.00 0.00 57 1006.3
20260505030513 70 297 0.0 0.0 0.00 0.00 0.00 56 1006.2
20260505030022 71 285 0.0 0.0 0.00 0.00 0.00 56 1006.2
20260505025511 71 280 0.0 0.0 0.00 0.00 0.00 55 1006.1
20260505025011 72 300 0.0 0.0 0.00 0.00 0.00 55 1006.0
20260505024511 72 292 0.0 0.0 0.00 0.00 0.00 54 1005.9
20260505024010 72 298 0.0 0.0 0.00 0.00 0.00 54 1005.9
20260505023509 73 304 0.0 0.0 0.00 0.00 0.00 53 1005.8
20260505023009 73 272 0.0 0.0 0.00 0.00 0.00 53 1005.8
20260505022511 73 279 0.0 0.0 0.00 0.00 0.00 52 1005.7
20260505022009 74 292 0.0 0.0 0.00 0.00 0.00 52 1005.7
20260505021510 74 294 0.0 0.0 0.00 0.00 0.00 51 1005.8
20260505021009 74 232 0.0 0.0 0.00 0.00 0.00 52 1005.7
20260505020509 74 302 0.0 0.0 0.00 0.00 0.00 51 1005.7
20260505020009 74 226 0.0 0.0 0.00 0.00 0.00 51 1005.7
20260505015509 74 273 0.0 0.0 0.00 0.00 0.00 51 1005.6
20260505015012 75 298 0.0 0.0 0.00 0.00 0.00 50 1005.7
20260505014508 75 269 0.0 0.0 0.00 0.00 0.00 50 1005.7
20260505014008 75 295 0.0 0.0 0.00 0.00 0.00 50 1005.8
20260505013507 75 279 0.0 0.0 0.00 0.00 0.00 51 1005.6
20260505013008 75 292 0.0 0.0 0.00 0.00 0.00 50 1005.8
20260505012508 75 290 0.0 0.0 0.00 0.00 0.00 50 1005.7
20260505012008 75 299 0.0 0.0 0.00 0.00 0.00 50 1005.6
20260505011510 75 292 0.0 0.0 0.00 0.00 0.00 50 1005.7
20260505011008 76 288 0.0 0.0 0.00 0.00 0.00 49 1005.7
20260505010506 75 284 0.0 0.0 0.00 0.00 0.00 50 1005.6
20260505010006 76 265 0.0 0.0 0.00 0.00 0.00 50 1005.7